Adrian, MI

1:46 PM EDT on April 19, 2018 (GMT -0400)
Lenawee County

Weather History for KADG - October, 2012

Change the Weather History Date:

Monday, October 22, 2012

  Actual Average Record
Temperature  
Mean Temperature 55 °F -  
Max Temperature 71 °F 58 °F 80 °F (1963)
Min Temperature 39 °F 36 °F 24 °F (1980)
Degree Days  
Heating Degree Days 10    
Growing Degree Days 5 (Base 50)    
Moisture  
Dew Point 47 °F    
Average Humidity 78    
Maximum Humidity 93    
Minimum Humidity 55    
Precipitation  
Precipitation 0.03 in - - ()
Sea Level Pressure  
Sea Level Pressure 30.06 in    
Wind  
Wind Speed 2 mph (SSW)    
Max Wind Speed 10 mph    
Max Gust Speed -    
Visibility 9 miles    
Events Rain    
Averages and records for this station are not official NWS values.
T = Trace of Precipitation, MM = Missing Value Source: NWS Daily Summary

Daily Weather History Graph

Daily Weather History Graph

Search for Another Location

Airport or City:

Astronomy

Oct. 22, 2012 Rise Set
Actual Time 7:57 AM EDT 6:43 PM EDT
Civil Twilight 7:28 AM EDT 7:11 PM EDT
Nautical Twilight 6:56 AM EDT 7:44 PM EDT
Astronomical Twilight 6:24 AM EDT 8:16 PM EDT
Moon 2:56 PM EDT (10/22) 12:36 AM EDT (10/22)
Length of Visible Light 11h 42m
Length of Day
10h 46m
First Quarter, 56% of the Moon is Illuminated
Oct 22
First Quarter
Oct 29
Full
Nov 6
Last Quarter
Nov 13
New
Nov 20
First Quarter

Hourly Weather History & Observations

Time (EDT) Temp. Windchill Dew Point Humidity Pressure Visibility Wind Dir Wind Speed Gust Speed Precip Events Conditions
12:53 AM 43.0 °F - 39.0 °F 86% 30.11 in 10.0 mi Calm Calm - N/A   Clear
1:53 AM 43.0 °F - 39.9 °F 89% 30.11 in 10.0 mi Calm Calm - N/A   Clear
2:53 AM 43.0 °F - 39.9 °F 89% 30.09 in 10.0 mi Calm Calm - N/A   Clear
3:53 AM 41.0 °F 39.0 °F 39.0 °F 93% 30.11 in 9.0 mi NNE 3.5 mph - N/A   Clear
4:53 AM 41.0 °F - 39.0 °F 93% 30.10 in 9.0 mi Calm Calm - N/A   Clear
5:53 AM 39.9 °F - 37.9 °F 93% 30.10 in 9.0 mi Calm Calm - N/A   Clear
6:53 AM 39.9 °F - 37.9 °F 93% 30.11 in 8.0 mi Calm Calm - N/A   Clear
7:53 AM 39.9 °F - 37.9 °F 93% 30.11 in 9.0 mi Calm Calm - N/A   Clear
8:53 AM 43.0 °F - 41.0 °F 93% 30.11 in 7.0 mi Calm Calm - N/A   Clear
9:53 AM 48.9 °F - 45.0 °F 86% 30.12 in 7.0 mi Calm Calm - N/A   Mostly Cloudy
10:53 AM 57.0 °F - 48.0 °F 72% 30.11 in 10.0 mi WSW 4.6 mph - N/A   Clear
11:53 AM 63.0 °F - 50.0 °F 63% 30.10 in 10.0 mi SSW 4.6 mph - N/A   Partly Cloudy
1:53 PM 68.0 °F - 52.0 °F 56% 30.06 in 10.0 mi South 5.8 mph - N/A   Clear
2:53 PM 70.0 °F - 53.1 °F 55% 30.04 in 10.0 mi SSW 10.4 mph - N/A   Partly Cloudy
3:53 PM 71.1 °F - 54.0 °F 55% 30.03 in 10.0 mi South 6.9 mph - N/A   Mostly Cloudy
4:53 PM 71.1 °F - 54.0 °F 55% 30.02 in 10.0 mi SW 10.4 mph - N/A   Overcast
5:53 PM 69.1 °F - 55.0 °F 61% 30.00 in 10.0 mi South 6.9 mph - N/A   Clear
6:53 PM 66.9 °F - 55.0 °F 66% 29.99 in 10.0 mi South 8.1 mph - N/A   Partly Cloudy
7:53 PM 66.0 °F - 55.9 °F 70% 30.01 in 10.0 mi WSW 4.6 mph - N/A   Mostly Cloudy
9:53 PM 62.1 °F - 57.0 °F 84% 30.00 in 10.0 mi SSE 3.5 mph - N/A   Mostly Cloudy
10:53 PM 63.0 °F - 57.0 °F 81% 29.98 in 10.0 mi South 5.8 mph - N/A   Mostly Cloudy
11:53 PM 62.1 °F - 57.0 °F 84% 29.99 in 9.0 mi South 8.1 mph - 0.03 in Rain Light Rain